Location: Unspecified
(0.0000°N, 0.0000°E)
Time: 20:03:12
(UTC+00:00)

BUGSAT 1 - Visible Passes

Search period start: 16 January 2022 00:00
Search period end: 26 January 2022 00:00
Orbit: 557 x 600 km, 98.1° (Epoch: 15 January)

Date Brightness Start Highest point End Pass type
(mag) Time Alt. Az. Time Alt. Az. Time Alt. Az.
16 Jan ? 04:04:54 10° ENE 04:07:40 18° ESE 04:10:27 10° SSE visible
16 Jan ? 05:40:27 10° NW 05:42:40 15° WNW 05:44:53 10° WSW visible
17 Jan ? 04:09:14 10° NE 04:12:17 21° ESE 04:15:19 10° SSE visible
18 Jan ? 04:13:38 10° NE 04:16:54 24° ESE 04:20:10 10° SSE visible
19 Jan ? 04:18:04 10° NE 04:21:30 28° ESE 04:24:58 10° SSE visible
20 Jan ? 04:22:31 10° NE 04:26:07 33° ESE 04:29:44 10° SSE visible
21 Jan ? 04:27:00 10° NNE 04:30:43 39° ESE 04:34:28 10° S visible
22 Jan ? 04:31:31 10° NNE 04:35:19 46° ESE 04:39:10 10° S visible
23 Jan ? 04:36:03 10° NNE 04:39:55 54° ESE 04:43:51 10° S visible
24 Jan ? 04:40:35 10° NNE 04:44:31 64° E 04:48:30 10° S visible
25 Jan ? 04:45:09 10° NNE 04:49:07 76° ESE 04:53:08 10° S visible
